NOAA 16 DEB, 41418

Orbit data source: Space-Track

NOAA 16 DEB, 41418 is space debris in SSO originally from a launch on Thu, 21 Sep 2000 UTC launched from the Air Force Western Test Range (AFWTR). Debris objects in space refer to the collection of defunct objects orbiting the Earth. Examples of debris include non-operational satellites, rocket bodies, and fragments generated from explosions, collisions, or faulty payload assembly.

Loading next visibility...
Identifier
41418, 2000-055KX
Orbit
SSO
Country
Flag of USUS
Related business
Manufacturer
Unknown
Mission
Spacecraft
Bus & Motor
Unknown
Mass
Unknown
Launch date (UTC)
2000-09-21 (26 years ago)
Launch vehicle
Unknown
Launch site
Air Force Western Test Range (AFWTR)
Object type
Payload
Rocket body
Debris
Shape & HBR
Unknown shape, 0.1 m
Radar Cross Section
Medium (>0.1 m² and <1 m²)

Expand to show TLE details & history
Last TLE update: 3 days ago

TLE from 3 days ago
0 NOAA 16 DEB
1 41418U 00055KX  26170.63181285  .00004662  00000-0  11694-2 0  9999
2 41418  99.0094  49.1041 0028798  98.5281 261.9177 14.51622247537638
Epoch: 2026-06-19T15:09Z
TLE epoch observation values (Epoch: 2026-06-19T15:09:48.630Z)
Latitude
-0.00003°
Longitude
-86.20653°
Altitude
726.235 km
Speed
7.491 km/s
True Right ascension
03h 16m 24s
True Declination
0° 00' 00"
Sunlit
Object was in daylight at epoch
Visualization orbit readout
Latitude
Unknown
Longitude
Unknown
Altitude
Unknown
Speed
Unknown
Apparent Right ascension
Unknown
Apparent Declination
Unknown
Sunlit
N/A
Visualization observer readout
Local Sidereal Time
21:56:20
Azimuth
Unknown
Elevation
Unknown
Doppler factor
Unknown
Orbital elements
Apogee altitude
737.92 km
Perigee altitude
697.052 km
Semi-major axis
7,095.623 km
Eccentricity
0.00288
Inclination
99.0094°
RAAN
49.1041°
Arg. of periapsis
98.5281°
True anomaly
261.59114°
Mean anomaly
261.9177°
Eccentric anomaly
261.75441°
Mean motion
3.63126 °/min
Orbital period
99.14 mins
BSTAR
0.0011694
Loading maneuver chart data...
Computing Atmospheric mass density...
Loading historical data...
Loading historical data...
Loading historical data...
Loading historical data...
Loading historical data...
Loading historical data...
Loading historical data...

Documentation

Showing up to 5 results
|